NOAA 16 DEB, 41531

Orbit data source: Space-Track

NOAA 16 DEB, 41531 is space debris in SSO originally from a launch on Thu, 21 Sep 2000 UTC launched from the Air Force Western Test Range (AFWTR). Debris objects in space refer to the collection of defunct objects orbiting the Earth. Examples of debris include non-operational satellites, rocket bodies, and fragments generated from explosions, collisions, or faulty payload assembly.

Loading next visibility...
Identifier
41531, 2000-055NF
Orbit
SSO
Country
Flag of USUS
Related business
Manufacturer
Unknown
Mission
Spacecraft
Bus & Motor
Unknown
Mass
Unknown
Launch date (UTC)
2000-09-21 (25 years ago)
Launch vehicle
Unknown
Launch site
Air Force Western Test Range (AFWTR)
Object type
Payload
Rocket body
Debris
Shape & HBR
Unknown shape, 0.1 m
Radar Cross Section
Small (<0.1 m²)

Expand to show TLE details & history
Last TLE update: 2 days ago

TLE from 2 days ago
0 NOAA 16 DEB
1 41531U 00055NF  25345.30645030  .00004654  00000-0  23108-2 0  9999
2 41531  98.6486   8.9743 0029519  39.5337 320.7983 14.17350462496558
Epoch: 2025-12-11T07:21Z
TLE epoch observation values (Epoch: 2025-12-11T07:21:17.305Z)
Latitude
-0.00014°
Longitude
178.3879°
Altitude
820.763 km
Speed
7.451 km/s
True Right ascension
00h 35m 53s
True Declination
0° 00' 01"
Sunlit
Object was in daylight at epoch
Visualization orbit readout
Latitude
Unknown
Longitude
Unknown
Altitude
Unknown
Speed
Unknown
Apparent Right ascension
Unknown
Apparent Declination
Unknown
Sunlit
N/A
Visualization observer readout
Local Sidereal Time
15:15:08
Azimuth
Unknown
Elevation
Unknown
Doppler factor
Unknown
Orbital elements
Apogee altitude
852.769 km
Perigee altitude
810.204 km
Semi-major axis
7,209.623 km
Eccentricity
0.00295
Inclination
98.6486°
RAAN
8.9743°
Arg. of periapsis
39.5337°
True anomaly
320.58389°
Mean anomaly
320.7983°
Eccentric anomaly
320.69116°
Mean motion
3.54547 °/min
Orbital period
101.54 mins
BSTAR
0.0023108
Loading maneuver chart data...
Computing Atmospheric mass density...
Loading historical data...
Loading historical data...
Loading historical data...
Loading historical data...
Loading historical data...
Loading historical data...
Loading historical data...

Documentation

Showing up to 5 results
|